Theta_e
319 320 317 318 317 317 316 313 318 322 319 319 321 323 323 322 319 317 317 315 312 316 318 319 319 320 319 318 318 315 310 311 315 316 317 316 316 315 314 313 312 312 311 307 306 308 308 309 310 310 310 310 311 311 312 314 315 316 318 319 320 320 322 324 325 327 327 328 329 330 331 331 332 333 333 334 334 334 335 335 334 333 334 333 330 331
316 319 318 319 316 316 315 315 318 318 318 320 320 321 319 318 319 315 314 315 312 314 317 316 318 319 319 318 316 314 312 314 317 318 317 317 315 314 313 313 313 311 308 306 306 307 308 309 309 309 310 310 311 311 311 312 313 315 317 318 319 320 322 323 324 325 326 327 327 328 328 329 330 330 331 331 332 331 332 333 332 331 331 332 330 329
316 318 317 315 314 313 313 316 320 320 322 323 319 319 319 318 319 315 314 315 312 313 319 319 319 319 318 317 315 313 314 314 314 315 315 314 314 312 312 312 311 311 310 309 307 306 306 308 308 309 309 309 310 311 310 311 312 313 315 317 318 320 321 322 323 324 325 326 326 327 327 328 328 328 328 329 329 330 330 331 332 331 330 332 332 331
318 318 315 312 313 314 313 315 319 320 321 322 321 321 319 318 318 317 314 315 312 312 317 319 317 317 315 316 317 311 309 311 311 313 313 311 312 311 310 311 310 311 311 309 309 307 304 305 307 307 308 309 309 310 310 311 311 312 314 315 317 320 321 322 323 324 325 326 326 327 327 327 327 327 327 328 328 329 330 330 331 331 331 330 330 332
317 313 309 309 312 316 316 314 316 318 316 319 327 330 324 321 321 318 315 316 315 311 314 315 315 322 324 323 324 314 309 311 311 312 314 312 310 309 310 311 309 310 310 309 312 310 303 302 305 306 306 307 308 309 310 311 311 312 313 315 317 319 321 322 323 324 325 326 327 327 327 326 326 326 326 327 327 328 329 330 330 330 331 329 327 330
316 308 307 311 312 316 318 316 318 320 316 315 325 332 329 329 327 320 317 318 319 314 311 310 313 330 334 328 327 322 319 318 312 312 316 314 311 311 311 310 308 310 311 311 313 311 304 301 304 307 307 308 308 309 310 310 311 312 313 315 317 318 320 322 323 324 325 325 326 326 326 326 325 325 325 326 326 327 328 328 328 328 328 328 327 329
313 308 311 315 314 316 316 316 317 319 319 316 318 322 325 330 328 323 320 317 318 314 309 310 314 322 325 323 324 324 324 323 316 315 317 316 313 312 311 309 307 308 311 312 312 311 306 303 304 307 309 310 310 310 310 311 311 312 314 315 317 318 320 322 323 324 325 325 326 326 326 326 326 325 325 326 326 327 326 326 327 327 327 327 327 327
312 311 312 315 318 318 315 316 316 316 320 317 316 319 325 329 327 327 326 321 321 314 314 321 319 315 318 318 319 318 319 320 318 317 319 317 316 317 316 313 310 309 310 312 319 321 310 304 306 309 310 312 312 312 312 311 312 312 314 315 317 318 320 321 322 323 324 325 325 325 326 326 326 326 326 326 325 325 325 325 325 325 326 326 326 327
313 317 316 316 320 319 318 319 316 316 321 319 313 316 323 325 328 332 333 329 320 311 318 327 315 311 321 323 319 314 313 317 320 319 319 317 318 321 323 320 317 316 311 312 323 324 310 305 310 311 311 313 313 313 313 313 313 313 314 315 316 318 319 320 321 322 323 324 324 325 325 325 325 326 325 325 324 323 323 323 323 323 324 324 324 325
313 316 316 318 319 318 319 317 314 318 323 316 309 314 318 321 326 328 329 327 318 314 325 326 312 311 318 326 326 314 309 319 324 321 319 317 318 321 324 325 324 323 318 317 320 312 306 309 312 312 313 314 313 314 314 314 314 314 314 315 316 317 317 318 319 320 322 322 324 324 324 324 325 325 324 324 323 322 321 321 321 321 322 322 322 322
313 311 312 315 315 316 316 313 313 317 317 312 315 320 318 322 327 326 327 323 315 322 329 320 314 312 311 323 329 314 309 317 319 319 319 320 321 320 324 327 328 330 326 326 323 309 304 309 311 312 313 313 313 314 314 314 314 314 314 314 315 316 316 317 318 319 319 320 321 322 323 323 323 324 323 322 322 321 321 320 320 320 320 320 320 320
315 313 314 315 313 314 318 317 312 310 312 316 323 324 316 321 325 324 328 320 314 327 325 314 313 312 310 320 322 314 316 316 314 317 318 321 323 323 327 328 328 332 331 330 332 320 310 309 310 311 312 312 313 313 313 314 314 314 314 314 314 315 315 316 316 317 317 318 319 319 320 321 321 321 322 321 321 321 320 320 319 319 319 318 318 318
318 318 316 314 313 314 321 324 314 311 318 320 320 321 319 321 319 322 329 321 318 325 315 310 313 312 313 318 314 315 319 317 316 317 319 319 320 322 326 327 327 331 335 336 336 335 327 313 307 308 310 311 312 312 312 313 313 313 313 313 313 314 313 314 314 315 316 316 317 317 318 318 318 319 319 319 320 319 319 319 318 317 317 317 316 316
319 322 318 315 316 314 317 321 317 316 319 316 315 319 320 321 316 318 322 315 315 319 311 308 312 314 317 315 313 316 313 314 317 316 318 317 317 316 315 319 325 328 333 337 336 342 336 313 304 307 310 311 312 313 313 313 313 313 313 313 313 313 313 313 313 313 314 314 315 315 316 316 316 317 317 317 317 317 317 317 317 316 316 316 315 315
318 321 320 318 318 315 314 317 321 321 318 314 315 315 318 326 324 320 320 319 320 320 313 308 312 322 320 309 311 315 311 313 316 317 316 314 315 315 309 312 321 325 329 335 336 336 323 307 305 310 312 313 314 313 314 314 314 313 313 312 313 312 313 312 312 312 312 313 313 314 314 315 315 316 316 316 316 316 316 316 316 316 315 315 315 315
316 316 318 316 314 315 316 317 319 320 317 315 313 312 314 323 325 317 313 318 319 316 315 312 316 324 317 308 310 310 310 313 314 315 316 316 317 318 317 320 325 327 329 331 332 330 316 306 309 312 312 314 314 314 314 314 313 313 313 313 313 312 312 312 312 312 312 312 312 312 313 313 314 314 314 315 315 315 315 315 315 315 315 315 315 314
315 314 315 315 313 314 316 315 316 318 317 315 312 316 318 317 322 317 307 309 311 311 315 314 317 321 314 311 316 312 310 312 312 313 313 316 320 320 322 325 324 322 323 325 327 325 314 308 310 312 313 314 314 313 314 313 313 313 313 313 313 312 312 311 311 311 311 311 311 312 312 312 313 313 313 314 314 314 314 314 315 314 314 314 314 314
320 317 314 316 315 312 310 313 317 315 314 316 318 319 314 310 318 319 312 315 315 314 318 315 314 318 314 315 320 315 311 313 314 314 311 313 317 318 318 319 319 318 320 325 326 321 310 307 310 313 312 313 313 313 313 313 313 313 312 312 312 312 312 311 311 311 311 312 312 312 312 312 312 312 312 313 313 313 313 313 314 314 314 314 313 313
321 319 314 314 316 314 312 315 316 313 310 316 320 316 313 315 319 315 313 320 317 313 321 320 312 311 312 319 323 315 312 318 316 312 311 311 314 316 316 319 322 323 324 326 327 326 315 307 310 313 312 314 313 313 313 312 312 312 312 312 311 312 312 311 311 311 311 312 311 312 311 311 312 312 312 312 312 313 313 313 313 313 313 313 313 313
317 319 314 312 314 315 316 316 317 317 312 311 311 309 315 324 323 316 313 316 316 313 319 322 318 316 316 320 321 314 315 322 318 314 314 313 315 316 316 321 325 325 328 326 325 328 317 308 310 312 312 313 312 311 312 311 311 311 311 311 311 311 311 311 311 311 311 311 311 311 311 311 311 311 311 311 312 312 312 312 312 312 312 312 312 312
314 314 314 313 312 315 319 318 316 318 314 312 312 311 315 317 315 315 314 314 317 319 320 320 319 323 322 317 318 316 315 317 317 317 317 315 316 316 315 320 324 325 326 322 323 326 313 306 309 310 309 310 310 309 310 309 310 310 310 310 310 310 310 310 310 310 310 310 310 310 310 310 310 310 311 311 311 311 311 311 311 311 312 311 311 311
314 312 316 318 316 317 319 315 313 316 315 313 313 313 315 315 315 316 315 312 313 316 320 319 314 321 324 314 312 313 310 311 315 318 317 315 316 317 314 318 323 325 323 320 324 324 308 303 306 307 307 308 307 307 307 308 309 309 309 309 308 309 308 308 309 309 309 309 309 309 309 309 309 309 310 310 310 310 311 311 311 311 311 311 311 310
318 319 322 322 320 318 315 310 308 313 315 314 314 315 315 314 316 318 317 316 312 309 314 315 313 323 327 313 307 310 309 310 314 316 318 318 318 318 315 316 319 320 321 325 325 313 302 302 305 304 305 305 305 305 305 306 307 307 307 307 308 307 306 307 309 309 309 309 309 308 308 308 308 308 309 309 309 310 309 310 310 310 310 310 310 310
316 319 320 319 321 322 316 312 310 312 314 314 316 317 315 315 318 323 323 319 315 313 314 314 313 323 331 320 314 315 313 312 312 314 318 321 320 319 316 317 319 320 322 327 321 305 299 302 302 302 303 303 303 304 303 304 305 305 305 305 305 305 306 308 309 309 309 309 308 308 307 308 308 308 308 308 308 309 308 308 309 308 309 309 309 309
313 316 318 317 320 321 318 317 317 316 315 317 321 319 315 317 318 318 317 314 314 318 318 317 316 319 326 323 316 314 312 312 313 314 317 320 319 318 317 318 320 322 320 319 315 308 304 302 300 300 301 301 301 301 301 302 302 303 303 303 304 306 307 308 309 308 308 308 309 308 308 308 307 307 307 307 307 307 307 307 307 307 307 307 308 308
314 318 317 315 316 316 316 317 318 319 316 317 322 319 313 316 316 314 316 315 315 318 315 315 316 314 317 318 313 312 312 312 313 314 315 318 319 318 318 319 320 318 314 310 309 309 307 302 299 299 300 300 300 300 300 301 303 304 305 306 306 307 308 308 308 308 308 308 308 308 308 308 307 307 307 306 307 307 306 307 306 306 307 306 306 306
321 319 314 313 314 312 314 317 319 321 319 316 319 317 313 314 315 316 321 318 315 316 315 314 314 313 316 317 313 314 316 315 314 314 315 318 320 320 318 319 320 315 311 308 307 308 308 305 300 298 300 300 300 301 302 302 303 305 305 306 306 306 307 308 308 309 308 308 308 308 307 307 306 306 307 306 306 306 306 306 306 306 306 306 305 305
322 318 313 314 314 312 316 323 321 320 320 318 318 318 316 315 315 316 318 315 315 317 314 313 313 312 315 319 318 318 318 318 317 315 316 319 321 321 317 317 320 317 313 312 313 311 311 309 302 298 298 300 300 301 302 302 303 303 303 303 303 304 305 306 307 308 308 307 307 306 306 305 305 305 306 306 306 306 306 305 305 305 305 305 305 305
319 315 315 315 313 312 316 321 320 318 319 318 317 318 317 315 315 315 315 314 315 315 313 313 315 313 313 316 320 319 317 318 317 314 315 317 318 317 315 316 318 318 316 316 314 310 309 308 302 297 298 299 299 300 301 301 302 302 302 302 302 302 303 304 305 306 306 306 306 305 305 304 305 305 305 305 305 305 305 304 305 305 304 304 304 304
317 318 319 314 312 314 314 316 318 319 318 317 316 317 315 314 314 314 314 314 313 313 313 314 317 315 312 314 318 317 315 314 314 315 317 318 317 318 318 318 318 316 313 311 308 306 305 303 298 296 298 298 299 299 300 300 300 300 301 301 301 301 302 303 304 304 305 305 304 304 304 304 305 305 305 305 304 304 305 304 304 304 304 304 303 303
313 319 320 313 312 316 315 315 318 317 316 317 317 316 314 314 314 313 314 314 313 313 313 313 316 315 313 315 317 314 312 310 311 315 317 317 317 319 319 320 319 315 310 307 305 304 304 302 297 295 297 298 298 299 299 299 299 299 299 299 299 300 300 301 302 302 302 302 302 303 303 303 304 304 304 304 304 304 304 304 304 304 304 303 303 302
312 317 319 316 315 317 316 316 316 313 312 314 316 316 315 314 314 313 313 313 313 314 314 314 315 313 312 315 316 314 314 314 314 316 317 317 319 320 321 323 321 316 312 309 307 306 307 304 298 295 297 298 298 298 298 298 298 298 299 299 299 299 299 300 300 300 300 300 300 300 300 301 301 302 302 302 302 302 303 303 303 303 303 303 302 302
316 319 322 318 317 319 315 313 315 314 313 314 314 315 315 313 313 313 313 313 313 314 315 315 313 313 315 316 315 315 315 316 317 318 318 320 321 319 319 319 316 312 309 307 306 306 304 301 298 296 297 298 298 298 298 298 298 297 298 298 298 299 299 299 299 299 299 300 299 299 299 299 299 299 300 300 300 300 300 300 301 301 301 301 301 301
317 319 321 318 321 324 315 312 316 316 315 316 315 314 312 312 313 314 313 313 313 312 313 313 314 317 321 318 315 317 316 315 317 317 314 316 320 318 314 312 310 307 305 304 304 302 298 297 297 297 297 297 297 297 297 297 297 297 297 297 298 298 298 298 298 298 298 298 298 298 298 298 297 298 298 298 298 298 298 298 299 299 299 299 299 299
316 318 318 318 322 322 315 314 318 318 316 318 321 320 314 310 312 313 313 313 312 312 312 313 313 316 319 317 315 316 316 315 316 315 310 309 313 315 312 308 306 305 304 304 303 300 296 296 297 297 297 297 297 296 297 297 297 297 297 297 297 297 297 297 297 297 297 297 297 297 297 297 297 297 298 298 298 298 298 298 298 298 298 298 298 298
317 318 319 320 321 318 315 316 319 319 318 318 321 320 315 312 312 312 313 313 312 312 312 312 311 312 314 317 318 316 314 312 311 308 306 306 308 310 309 307 306 304 302 301 300 298 296 297 297 297 297 296 296 296 296 296 296 296 296 296 296 296 296 296 296 296 296 296 297 297 297 297 297 297 298 298 298 298 298 298 298 298 298 297 298 298
317 318 318 319 319 318 317 317 318 320 320 319 321 320 316 316 315 313 314 314 312 312 311 311 312 311 312 318 321 315 310 311 311 307 304 304 305 305 304 303 302 301 298 297 297 297 297 296 296 296 296 295 295 295 295 295 295 295 295 296 296 296 296 295 295 295 295 295 296 296 296 296 296 297 297 297 297 298 298 297 297 297 297 297 297 297
316 317 317 319 319 318 318 318 318 320 319 318 320 319 316 318 317 314 316 317 316 315 311 310 312 311 312 317 318 311 309 313 315 310 305 304 303 302 300 297 296 297 296 296 296 296 296 296 295 295 295 294 294 294 294 294 294 294 295 295 295 295 295 295 294 294 294 294 294 294 295 295 295 295 296 296 296 296 297 297 297 297 296 295 295 296
314 315 315 316 318 318 319 319 319 320 319 319 322 319 316 317 317 315 317 318 319 319 314 312 312 312 315 317 312 308 312 316 317 312 307 305 303 301 301 298 295 296 296 296 295 295 295 295 294 294 294 293 293 293 293 293 293 293 293 293 293 294 293 293 293 293 292 292 293 293 294 294 294 294 294 294 295 295 295 295 295 296 296 295 295 295
313 313 313 314 316 317 318 318 319 319 318 319 322 319 314 313 315 318 319 319 320 321 317 314 313 313 315 313 308 310 315 317 317 312 307 304 300 297 298 298 296 295 296 295 294 294 293 293 293 293 293 292 292 292 291 292 292 292 292 292 292 292 292 292 291 291 291 291 291 292 292 292 293 293 293 293 293 294 294 294 294 295 295 295 295 294
312 312 313 313 314 315 316 318 317 318 320 320 318 315 313 313 314 318 319 318 319 318 313 312 315 315 314 311 309 311 311 309 309 308 303 301 300 297 296 296 295 295 294 294 293 292 292 292 292 291 291 291 291 290 290 291 291 291 291 291 291 291 291 290 290 289 289 290 290 291 292 292 292 292 292 292 292 292 293 293 293 293 293 293 293 293
313 313 313 313 313 313 315 316 316 318 320 318 313 310 310 314 318 318 314 311 313 313 309 309 312 312 310 309 308 307 304 300 302 303 301 302 302 299 295 294 294 294 293 292 292 291 291 290 290 290 290 290 289 289 289 289 289 289 289 289 289 290 289 289 288 288 288 288 288 289 290 290 291 291 291 291 291 291 292 292 292 291 291 291 291 291
314 314 313 313 314 314 315 315 316 317 316 312 310 309 310 315 321 320 313 307 306 307 306 305 305 304 304 305 304 302 301 301 301 301 301 301 300 297 294 293 293 292 291 291 290 289 289 289 288 288 288 288 288 288 288 288 288 288 288 288 288 288 287 287 287 286 286 287 287 288 288 289 290 289 289 290 289 289 290 291 290 290 290 290 289 290
314 314 314 314 314 314 315 315 316 317 314 311 312 314 314 314 314 316 316 311 305 304 304 304 303 302 303 303 302 301 302 301 301 300 300 299 298 295 292 291 291 290 289 289 288 287 287 287 286 286 286 286 286 286 286 286 286 286 286 286 286 285 285 285 285 285 286 286 286 287 287 288 288 289 288 288 288 288 288 289 289 288 289 289 288 288
312 313 314 315 314 312 314 315 314 312 309 308 309 311 311 309 306 307 312 311 305 304 305 305 303 302 302 302 302 302 301 301 300 299 298 296 296 293 291 289 289 288 287 286 286 285 284 284 284 284 284 284 284 284 284 283 283 283 284 284 283 283 283 284 284 284 284 284 285 285 285 286 287 287 287 286 286 287 287 287 287 287 288 288 287 287
309 310 311 313 313 311 310 309 306 305 305 305 304 301 301 303 303 305 308 308 305 303 303 302 303 303 301 301 301 301 299 298 297 296 295 293 292 290 289 288 287 286 285 284 283 282 281 281 281 281 281 281 281 281 281 280 280 281 281 281 281 281 282 282 282 282 282 283 283 283 283 284 285 285 285 285 285 285 286 286 286 286 286 287 287 287
307 308 309 311 313 314 312 307 304 302 302 302 301 299 298 299 299 301 303 302 299 298 298 297 298 298 297 299 300 298 296 295 295 293 291 289 288 287 286 285 284 283 283 282 280 279 279 279 279 279 279 279 278 278 278 278 278 278 279 279 280 280 281 281 281 282 282 281 281 281 281 282 283 283 283 283 284 284 284 285 285 285 286 286 286 286
308 308 310 311 311 311 308 303 299 299 298 297 299 300 298 297 295 294 294 293 292 292 292 291 292 294 295 295 295 294 292 291 291 290 287 285 285 284 283 282 281 280 279 279 278 277 277 277 277 277 276 276 276 276 276 276 277 277 278 279 279 280 281 281 281 281 280 280 279 280 280 280 281 281 281 282 282 282 283 284 284 285 285 286 286 286
307 307 310 311 309 306 304 299 298 300 301 298 298 297 294 291 291 290 289 288 289 290 290 288 287 288 290 290 290 292 292 288 285 285 284 283 282 281 280 279 278 277 276 276 276 276 276 275 275 274 274 274 274 273 273 274 275 276 277 278 279 280 280 280 279 279 278 278 279 279 279 279 279 279 279 279 280 281 282 282 283 284 284 285 286 286
305 307 309 309 307 308 308 303 300 305 307 301 299 297 292 288 289 289 289 290 290 289 289 289 285 283 283 283 285 289 290 285 281 280 281 280 279 278 277 276 275 274 274 274 274 274 273 273 272 272 272 272 271 271 272 272 273 275 277 279 280 280 279 277 277 277 277 277 277 277 277 277 276 277 278 278 279 280 280 281 282 282 283 284 285 285
305 307 308 308 309 309 308 304 301 305 307 302 298 296 291 288 289 291 291 290 289 286 287 289 289 286 282 279 279 282 284 281 278 277 278 277 276 275 274 273 273 273 273 272 272 272 271 271 270 270 270 270 270 270 271 272 273 275 278 279 278 277 276 275 275 275 275 275 274 274 274 274 274 275 276 277 278 278 279 280 281 281 282 283 284 285
Wind_Speed
3 4 3 5 7 7 8 6 6 5 6 7 5 4 4 4 3 3 3 5 1 3 3 3 4 8 10 12 13 10 4 4 9 9 8 9 8 8 8 9 9 10 10 8 8 10 12 15 17 18 20 22 24 26 28 29 31 32 32 32 32 32 31 32 32 32 32 32 32 32 34 36 35 34 34 34 35 34 34 33 31 31 30 29 30 32
4 4 7 6 7 7 6 6 7 6 6 6 6 5 1 2 3 2 1 4 3 1 3 3 4 9 11 12 12 9 7 7 9 9 10 10 9 8 8 10 10 9 8 4 6 8 10 13 14 16 18 19 22 23 26 28 30 31 30 31 32 31 31 31 33 33 33 34 34 33 34 35 34 34 34 35 35 36 35 35 35 33 31 33 35 36
2 5 8 5 5 7 7 6 8 7 6 5 4 5 2 2 2 3 2 4 4 1 3 3 4 9 11 11 12 10 9 9 8 8 9 9 9 9 9 10 10 10 9 5 5 8 12 14 14 15 18 19 21 21 22 24 26 28 29 31 32 31 31 31 31 32 33 33 33 32 31 30 30 30 32 33 33 33 34 34 35 34 32 33 34 35
4 6 6 6 8 9 6 4 8 7 4 4 4 5 3 2 1 1 2 3 4 2 1 2 4 8 8 7 9 8 6 7 6 7 9 8 9 11 10 8 8 10 10 7 6 9 12 14 12 13 15 17 19 20 20 21 22 25 27 29 30 30 30 29 29 30 31 30 29 29 28 26 26 27 28 29 30 31 32 32 33 33 34 32 31 31
5 4 1 8 6 8 7 2 6 6 2 1 3 5 4 3 4 3 1 1 3 3 2 2 4 6 5 5 7 5 4 6 5 6 8 7 8 10 9 9 8 9 8 8 8 8 8 11 12 12 12 13 15 17 19 19 19 21 23 25 26 27 27 27 27 27 28 28 27 26 26 24 22 23 23 24 27 30 30 32 33 34 34 33 33 33
4 3 4 9 4 5 8 4 5 7 4 2 4 6 7 7 7 3 2 3 3 4 3 4 3 5 5 4 7 5 7 7 5 5 8 8 7 7 8 10 8 7 7 7 9 8 7 10 12 10 9 10 11 12 14 15 16 17 18 20 22 23 24 25 25 25 26 27 27 27 26 25 23 23 24 26 29 31 31 32 33 34 34 33 34 34
1 1 4 7 6 6 7 5 6 6 6 2 4 6 7 7 8 6 5 4 1 2 2 3 2 4 6 5 7 5 8 10 8 6 8 8 8 7 7 8 6 6 6 6 7 7 8 11 11 8 4 4 5 6 7 10 12 13 15 16 17 19 21 22 22 23 24 26 28 29 29 29 28 28 29 31 31 30 30 31 31 32 33 33 34 36
3 4 4 5 6 6 6 5 6 7 7 3 3 5 8 8 8 7 6 5 2 3 3 4 3 2 5 6 7 5 6 10 10 8 9 7 8 8 7 7 7 7 6 5 6 6 7 9 9 6 5 4 2 0 2 4 6 8 11 12 13 15 17 18 20 21 23 25 27 29 30 30 30 31 31 29 28 28 28 28 29 30 31 32 33 35
2 5 6 6 5 4 5 4 5 8 6 3 2 6 7 7 7 5 6 4 0 1 4 5 2 1 6 6 5 5 4 8 9 8 9 8 8 8 7 7 6 6 5 5 5 5 6 6 6 5 5 5 5 4 2 1 1 3 6 9 10 12 13 15 17 19 21 23 25 27 28 30 30 31 30 28 26 25 25 26 27 28 29 30 31 33
1 4 6 7 5 5 3 1 1 5 3 3 5 7 6 6 6 5 5 4 2 2 4 5 2 1 5 7 4 3 1 5 7 6 7 7 7 6 7 7 6 5 3 2 4 5 4 5 6 6 7 7 7 6 5 4 2 1 3 5 7 9 10 12 14 17 19 21 23 26 27 29 30 30 29 28 27 25 25 25 26 27 27 28 29 29
1 1 1 3 3 5 4 4 3 3 4 7 6 7 7 6 5 4 3 4 3 2 6 5 3 0 3 6 4 1 2 5 3 4 6 6 7 6 6 7 6 6 5 4 3 3 3 5 7 7 9 9 9 8 6 5 4 2 1 2 3 6 8 10 13 15 17 20 22 24 26 28 29 29 28 29 28 27 26 27 27 27 27 27 28 28
3 2 0 1 1 4 6 5 5 4 4 6 4 5 5 4 4 4 4 4 2 4 6 4 3 1 3 5 3 3 5 5 3 3 5 6 7 7 7 7 7 5 5 5 5 5 4 6 8 9 10 10 10 9 8 7 6 4 3 1 1 4 6 8 11 14 16 18 21 23 25 26 27 28 29 29 30 29 28 29 29 28 27 27 27 28
2 1 1 1 1 4 6 5 5 5 4 5 5 6 5 2 3 2 3 1 3 5 3 3 2 2 5 7 6 7 8 7 6 7 7 6 7 7 8 9 8 6 5 5 4 5 5 5 7 9 10 11 12 12 11 10 8 7 5 4 3 3 5 7 9 12 14 17 19 21 23 25 26 27 28 29 30 29 29 29 28 28 28 27 27 27
1 4 2 2 1 2 5 5 3 1 0 4 6 5 4 3 2 2 4 2 3 4 3 3 2 2 5 6 9 11 9 6 6 7 7 6 7 7 7 8 9 7 6 5 4 4 4 5 7 9 12 14 15 14 13 11 10 8 7 6 6 6 6 7 9 11 13 16 18 20 22 24 24 26 27 28 28 28 28 28 28 28 28 27 28 27
4 4 3 4 2 3 4 4 6 6 3 3 3 5 5 5 5 4 4 3 4 3 3 3 2 3 3 3 6 9 7 5 5 6 6 6 7 7 5 6 7 7 5 5 5 5 5 5 7 10 13 15 14 12 11 10 9 9 8 8 7 7 6 7 8 10 12 14 15 18 21 23 24 24 25 27 27 27 27 27 27 28 27 27 28 27
4 4 4 2 2 4 5 2 4 7 3 1 2 5 3 4 5 3 3 5 3 0 2 2 3 4 3 6 7 4 4 6 5 6 5 5 7 6 5 4 5 5 4 4 5 5 5 6 9 11 12 12 11 10 9 9 9 9 9 10 9 9 8 8 9 9 10 11 13 16 19 21 22 23 24 25 26 26 26 27 27 27 27 27 26 26
3 3 4 3 3 2 3 2 2 3 3 2 2 3 4 4 8 6 1 0 3 1 3 1 3 5 3 6 8 3 4 6 4 3 3 5 6 5 5 5 4 4 4 5 4 4 5 7 9 10 11 11 11 10 10 10 10 11 11 12 13 12 12 11 10 10 11 11 13 15 17 20 21 22 24 24 24 24 24 26 27 27 27 26 26 25
5 1 3 2 2 1 1 2 4 3 3 5 3 5 4 3 5 5 2 3 4 2 4 1 4 5 2 3 6 5 5 7 5 3 1 5 4 4 4 5 3 3 3 3 3 3 3 6 9 10 11 12 11 10 10 10 10 12 13 13 14 15 15 14 13 13 13 13 14 15 16 18 21 22 23 23 23 23 24 25 26 26 26 26 25 25
5 3 3 2 2 2 3 3 3 4 3 4 4 3 4 3 2 2 2 1 1 2 4 4 3 3 4 5 4 2 6 8 7 2 1 2 2 2 2 3 5 4 4 4 4 5 5 7 10 11 11 11 11 11 10 10 11 12 12 13 13 14 15 15 15 14 14 15 15 16 17 18 20 21 22 23 23 23 24 25 25 25 26 25 25 25
4 4 2 2 1 1 3 1 5 2 3 3 3 2 2 3 4 2 3 4 3 3 3 4 4 3 6 6 5 7 8 8 7 4 4 6 7 5 2 5 6 6 6 6 5 5 6 8 10 10 9 9 10 11 11 10 11 11 11 11 10 12 13 13 14 13 13 14 15 16 17 17 18 20 21 22 22 23 25 25 25 25 25 25 25 25
3 3 3 2 3 1 2 3 6 7 3 3 3 4 2 2 2 2 1 2 4 4 3 2 3 5 6 5 7 9 8 6 6 6 7 8 7 6 4 5 6 7 7 5 5 5 6 8 10 9 8 7 8 9 9 10 10 11 11 10 8 9 10 10 11 11 11 12 14 16 17 17 18 18 19 21 22 23 24 25 25 25 25 26 26 26
2 3 4 2 0 3 3 3 3 5 5 6 5 7 6 4 4 3 2 1 3 3 4 3 3 7 6 4 5 6 6 6 6 7 8 7 6 6 5 4 6 6 4 3 4 5 6 9 11 10 10 9 10 10 11 11 11 11 12 12 11 10 9 9 9 9 10 12 13 15 16 16 17 17 18 20 21 23 24 25 25 25 26 27 27 26
3 4 4 3 3 5 3 2 2 2 2 4 3 4 6 5 5 6 5 4 2 1 2 3 2 7 6 3 4 5 5 6 6 7 9 7 6 6 5 4 4 2 1 4 5 5 8 10 10 10 10 10 10 10 11 11 11 12 13 14 13 12 12 11 11 11 11 12 13 14 15 16 17 17 18 19 20 22 23 24 24 25 26 27 27 27
2 4 4 0 3 3 4 4 2 3 2 2 3 3 5 4 3 5 5 4 4 3 3 3 2 7 6 3 3 5 5 4 5 6 8 7 6 6 5 3 3 3 4 5 5 5 7 7 7 8 8 8 8 8 9 10 11 11 12 14 15 15 16 16 15 14 13 13 13 14 15 16 17 17 18 19 20 21 22 23 23 24 25 26 26 27
4 3 5 3 1 3 4 3 3 3 1 4 4 3 5 4 6 5 2 4 2 5 7 5 4 7 6 4 3 1 0 3 5 5 5 6 6 6 4 1 2 3 5 5 5 5 5 5 6 6 6 6 6 6 6 8 10 11 13 17 19 20 20 19 18 17 17 16 17 17 17 17 18 18 19 20 21 22 22 22 23 23 24 25 26 26
5 4 5 6 6 6 6 5 4 3 3 2 2 4 5 6 8 5 3 4 3 5 7 6 6 6 5 5 3 2 3 4 6 6 5 5 6 5 2 1 4 3 2 3 3 3 2 3 6 7 8 9 10 11 12 14 16 19 21 22 23 22 21 20 20 19 19 19 20 19 19 19 19 19 20 21 21 22 22 23 23 23 24 24 25 26
3 2 5 8 10 11 10 7 4 6 6 4 4 6 7 7 9 6 4 4 6 3 4 8 9 6 5 5 3 4 6 7 7 7 6 6 5 3 3 4 5 2 3 3 1 1 2 4 7 10 13 14 16 18 20 22 25 26 25 23 22 21 20 20 20 20 20 20 20 20 19 19 19 19 20 21 22 22 23 23 23 24 24 24 25 26
4 3 7 9 12 11 7 5 5 8 9 10 9 9 9 10 10 9 8 11 7 5 6 12 8 8 9 6 7 9 8 7 8 9 8 6 4 3 4 4 3 3 2 3 4 5 6 6 7 10 13 15 18 20 22 25 26 25 24 23 22 21 21 20 20 19 20 20 20 20 20 19 19 18 19 19 20 21 22 22 23 23 24 24 25 26
5 6 7 7 11 10 5 5 6 7 8 10 11 13 13 13 13 13 15 16 9 7 14 10 10 11 12 8 10 11 9 10 10 9 7 5 3 2 2 2 3 4 5 7 7 7 7 6 6 8 12 15 20 23 25 25 25 23 23 23 23 22 22 21 21 20 20 20 20 20 20 20 20 20 20 20 20 20 20 21 22 23 24 25 25 26
4 4 4 7 9 10 5 5 6 7 7 6 9 13 14 15 17 18 18 20 15 14 16 7 9 14 12 9 11 10 8 8 5 2 4 5 3 3 3 2 0 2 3 4 3 3 3 3 5 9 13 18 22 23 23 23 22 22 22 22 22 22 22 21 21 21 21 21 21 21 20 20 20 21 21 22 22 22 22 22 23 24 24 25 25 26
3 3 2 6 4 7 4 6 6 6 6 6 7 9 11 13 16 17 18 18 13 12 14 7 6 12 7 7 10 7 4 4 2 3 7 6 5 5 5 4 4 4 4 4 3 1 1 3 7 12 15 18 19 19 20 20 20 21 22 22 22 22 22 21 20 21 21 21 21 22 22 21 21 21 21 21 22 22 23 23 24 25 26 26 26 26
4 2 2 5 4 6 3 7 7 3 3 2 5 7 11 13 14 15 14 11 9 11 13 8 9 12 5 8 8 5 3 5 7 8 9 5 3 4 4 5 5 5 4 4 4 5 6 6 8 11 13 14 15 17 18 18 19 21 22 22 22 22 22 21 21 21 22 22 23 24 24 25 25 24 24 24 23 23 23 23 24 25 26 26 26 27
5 4 2 4 5 5 2 5 7 6 4 3 8 12 16 15 13 11 8 8 11 12 10 10 12 11 4 8 8 5 6 9 10 8 6 5 3 2 5 6 6 5 5 5 5 6 6 6 8 10 12 13 14 15 16 17 18 20 21 21 22 23 23 23 22 22 23 24 25 26 27 27 27 27 27 27 27 26 26 26 26 25 26 26 26 26
4 6 4 4 4 3 3 5 7 4 5 8 8 12 17 17 15 13 11 14 16 13 10 10 9 4 5 9 10 9 9 8 6 4 3 3 4 5 6 6 6 5 5 4 4 4 5 7 9 11 12 13 14 14 15 17 18 19 20 21 22 22 23 23 23 23 25 26 26 27 28 28 29 29 29 29 29 29 28 28 28 28 27 28 27 27
5 6 4 2 3 2 1 4 4 6 9 6 3 5 12 15 15 14 15 16 14 12 12 12 11 7 6 8 8 9 8 3 1 2 2 2 5 8 7 6 6 6 5 4 4 4 6 8 10 12 13 14 15 15 17 18 19 20 21 21 22 23 23 23 23 24 26 28 29 30 31 32 32 32 33 33 33 33 32 32 31 31 31 30 30 29
5 5 3 2 3 2 3 4 6 6 2 2 3 2 4 5 7 8 11 13 11 10 11 13 17 13 7 6 5 4 5 4 4 3 3 3 4 7 8 6 6 5 4 3 3 4 6 8 9 11 12 13 14 15 18 19 20 21 22 22 23 24 24 24 25 27 29 31 32 33 34 35 36 36 36 37 37 37 37 36 36 35 34 33 33 32
5 4 3 3 4 3 4 6 5 4 3 3 5 4 3 6 9 9 9 11 12 13 12 13 17 14 7 7 5 4 6 6 4 2 1 0 3 5 6 6 7 6 5 4 4 5 7 8 9 10 11 12 14 16 18 20 21 22 24 24 25 27 27 27 28 29 31 33 34 35 35 35 36 36 37 37 38 38 39 38 38 37 35 35 36 36
4 3 3 4 3 3 4 6 3 4 8 9 6 4 4 7 10 10 7 8 8 11 14 14 14 13 8 6 6 6 7 4 2 3 4 3 3 4 5 6 7 7 6 5 5 7 8 10 10 10 11 12 14 17 19 20 21 23 24 25 26 27 27 27 28 30 32 33 34 35 35 34 34 35 36 37 37 37 38 38 38 37 36 35 37 38
5 3 3 3 2 3 5 7 7 7 8 7 5 4 4 7 9 9 5 8 6 7 11 12 12 13 10 8 8 8 7 4 6 5 5 6 5 5 6 6 7 8 7 7 8 9 10 11 12 12 13 15 17 18 19 19 20 21 22 23 25 25 25 25 27 29 31 32 33 33 33 33 33 34 34 35 36 36 36 37 37 38 38 37 37 38
6 4 3 5 5 5 6 6 5 5 4 4 5 5 3 6 10 9 5 8 5 5 9 12 14 12 8 10 9 8 7 7 6 5 6 7 6 5 6 6 7 8 9 10 10 11 12 13 14 15 16 17 18 20 20 20 20 20 21 22 24 24 24 25 27 29 30 31 32 33 33 33 33 33 33 33 35 36 37 36 37 38 38 38 38 38
5 3 4 7 7 7 9 6 3 3 4 5 5 4 4 6 7 7 8 5 4 4 3 6 8 6 7 10 8 5 4 3 4 6 6 6 6 6 6 8 8 8 10 10 11 13 14 15 16 16 17 18 20 21 21 21 21 20 21 22 23 24 25 27 28 29 29 30 32 32 33 33 32 33 34 34 34 36 38 38 36 37 38 37 38 37
5 4 4 6 6 6 6 5 3 4 4 4 4 3 4 5 4 6 4 0 3 5 2 3 5 6 8 8 6 5 4 4 7 8 6 6 6 5 7 9 9 9 10 10 11 13 14 15 17 17 18 19 20 21 21 20 20 19 19 20 21 24 26 28 28 29 29 29 30 31 32 33 33 33 34 35 35 35 39 40 37 36 37 36 36 36
6 5 3 5 6 4 4 5 5 5 3 7 8 2 2 4 5 5 3 3 2 5 5 5 5 6 8 8 7 7 7 7 7 7 7 6 6 6 6 7 7 8 9 10 12 13 14 15 16 17 18 19 19 19 19 19 19 18 18 20 22 25 27 29 29 29 29 30 31 32 33 34 35 35 35 36 35 34 37 40 38 37 36 34 33 35
5 6 4 4 5 5 5 7 5 3 4 7 7 4 5 4 3 4 5 3 2 3 4 5 4 4 7 10 9 8 8 7 7 7 7 6 5 5 5 6 7 7 9 10 10 11 12 13 14 16 17 17 17 17 17 18 19 19 19 21 25 27 29 31 30 31 31 32 33 34 35 35 36 37 36 35 35 34 36 38 37 37 36 34 31 31
5 5 4 4 5 4 3 4 3 1 3 3 1 1 3 1 2 3 6 5 3 3 3 5 6 4 6 10 10 7 6 6 6 6 5 5 4 4 5 6 7 7 9 9 9 11 12 12 13 14 15 15 16 17 17 18 20 21 21 23 26 28 29 30 31 32 32 33 33 34 35 36 38 38 36 34 33 32 34 36 35 36 36 35 31 29
3 2 1 2 3 2 1 2 2 1 1 1 2 2 1 1 2 3 6 6 4 3 3 5 6 5 6 8 8 6 5 5 6 5 4 4 4 4 5 6 6 7 8 9 10 12 13 13 13 13 14 16 17 18 19 20 20 20 23 25 25 25 26 28 30 31 31 31 33 34 34 35 37 38 37 36 34 32 32 33 32 34 35 35 33 30
2 2 2 1 3 3 2 1 2 1 2 1 2 2 3 4 4 3 5 5 5 5 6 6 7 7 6 7 8 8 6 6 6 5 4 3 3 3 4 4 5 6 7 8 10 13 14 14 14 15 17 18 19 20 22 22 21 22 24 25 23 22 23 26 27 29 30 31 32 34 33 32 34 35 36 37 35 33 33 33 31 31 33 34 33 30
2 3 3 3 4 4 2 1 1 0 2 2 2 1 2 3 4 5 5 6 7 8 7 6 6 6 5 6 8 9 7 5 5 5 3 2 2 2 2 2 3 5 7 9 12 14 16 16 17 18 19 20 20 22 24 24 24 24 24 23 22 21 22 23 24 27 31 32 32 32 30 29 31 33 34 36 36 35 34 35 33 32 33 36 34 30
2 3 4 3 3 1 1 1 2 2 3 2 1 1 1 3 5 7 6 7 9 9 8 8 6 6 6 6 6 8 8 6 4 5 4 3 2 2 1 2 5 7 9 12 14 15 16 17 19 20 21 21 22 23 24 24 24 24 23 23 21 19 20 23 26 29 32 32 31 31 31 31 32 33 33 35 36 36 35 35 34 33 36 41 40 34
3 4 3 3 3 2 3 6 6 4 1 4 5 5 4 5 7 9 7 7 8 8 9 9 8 7 7 6 5 7 7 5 4 4 3 3 2 2 2 5 7 9 11 12 13 14 14 16 17 19 21 22 23 23 24 24 24 23 22 20 18 19 23 27 29 29 28 27 27 29 30 32 34 34 33 33 34 35 38 40 38 34 33 38 43 40
5 6 5 5 5 6 7 9 10 5 2 5 7 8 7 6 7 9 8 6 6 5 7 9 8 6 6 6 6 7 6 5 4 4 3 2 2 3 4 5 7 9 11 12 13 15 16 17 18 19 21 22 23 23 23 23 23 22 20 18 19 23 26 27 26 25 25 25 25 26 28 30 32 33 33 33 33 33 35 39 43 43 38 34 35 39
Wind_Direction
91 122 177 187 184 190 191 169 144 155 143 137 133 114 148 176 242 251 262 302 1 134 252 250 261 276 274 276 277 280 316 309 279 275 270 264 262 263 261 262 256 247 254 266 267 261 259 258 256 255 254 253 252 250 247 243 242 241 239 237 238 239 234 229 227 224 222 221 222 224 227 230 231 232 232 234 237 238 240 240 240 238 236 243 247 237
87 158 211 208 186 172 156 131 111 104 90 98 135 134 141 189 226 262 262 316 350 135 269 6 331 277 265 271 271 275 293 275 256 256 261 260 260 262 261 264 263 262 273 281 266 261 256 255 253 251 249 246 246 246 243 242 242 240 237 237 239 238 232 230 229 225 223 222 222 223 226 229 231 232 233 235 238 240 242 242 244 246 247 249 246 239
125 216 225 198 144 109 93 96 98 93 91 89 116 133 155 213 229 291 317 331 2 55 269 347 334 279 264 265 265 262 261 258 248 240 248 257 261 263 257 258 268 277 285 292 281 273 267 262 254 248 246 243 243 245 244 243 241 239 237 238 239 236 234 233 230 228 228 228 228 227 228 231 232 233 235 236 238 240 242 243 245 246 246 247 242 234
179 251 237 165 133 114 93 74 96 89 82 96 108 134 179 242 165 219 291 331 7 55 275 299 297 281 280 284 277 267 262 271 272 255 252 248 249 259 264 266 269 271 281 300 294 277 276 276 268 256 251 248 244 242 242 241 239 238 238 238 237 235 235 234 231 230 231 231 230 229 231 234 235 236 238 238 238 239 241 242 242 242 242 244 247 243
198 275 175 134 134 130 126 120 125 120 92 125 146 143 161 196 177 189 238 348 6 19 23 4 315 291 306 320 290 294 324 297 297 299 279 261 252 265 277 274 260 257 271 284 279 274 278 279 279 275 266 259 253 246 244 242 241 241 241 240 238 237 237 235 234 232 230 229 228 227 228 231 234 236 236 233 234 236 237 239 240 241 241 241 245 246
226 284 118 126 124 122 132 173 185 156 152 240 217 177 171 174 165 146 92 82 38 0 1 24 349 290 313 315 271 302 342 311 314 319 288 285 288 277 273 273 264 258 258 257 268 282 291 286 290 295 280 267 263 255 250 247 246 246 244 243 240 239 239 237 236 233 230 229 227 225 223 224 226 228 230 231 234 236 237 241 241 242 242 242 242 242
204 31 90 124 133 128 137 191 211 159 135 201 230 175 148 133 130 134 118 96 102 246 324 46 120 264 311 300 270 318 338 308 312 315 294 296 301 287 273 278 277 269 264 262 275 287 294 301 310 323 332 302 278 260 250 248 249 247 244 243 241 240 240 239 237 235 232 230 229 229 228 228 228 229 234 239 241 243 244 246 245 244 245 243 242 242
135 103 82 106 114 123 148 203 212 153 134 206 234 130 124 123 132 141 111 95 191 234 330 13 109 232 296 272 275 332 331 307 316 314 308 311 306 302 292 286 278 263 256 262 279 286 293 308 318 332 12 24 24 128 232 244 245 244 242 242 242 242 241 241 240 237 235 233 232 232 233 234 234 237 242 246 246 248 249 249 248 247 247 246 246 244
107 145 172 145 117 142 180 224 195 141 125 236 207 116 119 122 124 119 95 89 11 359 313 316 53 198 269 274 304 345 309 296 307 301 307 318 314 315 312 308 301 280 256 238 249 269 290 321 342 5 38 51 63 79 88 96 183 225 232 237 240 242 243 242 242 241 239 238 237 237 236 238 240 243 246 248 249 249 249 249 249 249 249 250 249 249
67 181 190 147 138 181 187 321 157 121 113 187 141 96 78 74 78 79 88 100 50 28 244 267 354 185 266 287 313 2 265 264 279 283 293 304 313 328 332 333 335 330 326 262 245 262 299 1 26 43 63 70 69 73 76 75 88 146 205 228 237 243 246 246 245 244 243 241 239 239 239 241 244 246 246 247 248 248 248 249 249 250 251 252 253 252
320 266 200 119 148 180 137 75 53 73 127 144 113 74 59 37 35 49 55 82 65 317 252 258 308 108 269 283 269 234 224 213 234 301 309 316 333 346 345 344 342 341 349 354 338 317 347 44 58 61 67 70 69 73 77 77 80 90 136 221 241 249 250 250 249 247 246 244 242 242 243 245 247 248 248 247 248 248 248 249 251 252 253 254 255 256
0 45 223 159 132 129 102 69 40 42 93 106 90 90 81 8 9 27 1 39 101 255 260 272 297 150 215 264 256 255 259 229 205 269 290 303 321 328 333 334 329 325 330 349 9 5 16 47 54 56 62 66 69 70 69 68 67 63 57 28 290 267 262 258 254 251 250 247 245 246 246 248 250 250 249 249 250 251 251 253 255 255 256 256 257 257
20 78 280 341 167 147 113 79 42 4 19 72 100 108 97 10 9 1 313 345 209 243 269 284 275 192 231 252 259 265 262 243 226 225 236 261 287 305 317 319 318 326 336 346 2 1 11 27 29 41 52 58 61 58 53 50 45 41 33 12 349 319 291 274 265 260 256 253 252 252 251 252 253 252 252 253 254 255 256 257 258 258 258 258 259 259
263 305 312 109 236 195 142 129 132 231 224 125 138 132 128 128 105 250 265 288 254 257 294 287 270 256 265 263 253 250 243 226 228 232 235 253 272 282 288 293 299 313 325 330 340 351 1 6 13 32 42 47 51 49 45 41 31 24 16 360 349 341 323 301 288 277 269 264 262 259 257 256 256 255 255 256 258 259 260 261 261 262 262 262 263 264
182 266 234 168 211 183 164 175 155 145 140 165 159 130 145 157 153 203 217 205 234 271 309 298 272 196 202 267 250 241 253 258 253 264 271 275 280 285 274 263 278 291 300 318 344 349 343 359 23 39 45 48 50 50 47 39 25 15 4 350 341 336 324 310 299 287 280 278 273 266 261 259 259 259 260 261 262 263 263 264 264 265 266 266 268 269
169 244 260 277 270 156 163 220 128 112 112 232 127 106 158 184 138 133 180 174 169 324 304 266 243 212 204 284 277 250 282 290 279 284 301 298 292 309 310 272 272 289 307 344 9 1 351 24 44 48 52 53 53 54 48 34 19 9 358 346 337 328 315 305 299 292 288 285 278 271 266 264 262 262 262 262 264 265 265 266 267 267 269 270 271 272
163 256 312 348 353 96 163 208 111 120 171 160 128 169 213 169 113 112 192 75 80 203 266 219 249 288 323 292 294 322 298 298 299 287 307 297 297 328 320 294 304 330 347 354 345 331 350 33 48 51 53 48 45 45 38 26 12 1 354 345 336 329 321 313 310 308 304 295 288 283 277 272 268 265 265 266 267 268 269 269 268 270 271 271 273 275
156 154 333 34 75 349 275 130 65 34 117 123 175 205 190 118 94 109 156 9 42 233 275 274 232 283 331 268 315 339 281 275 274 248 312 301 312 6 322 307 343 355 1 355 337 341 7 37 44 47 48 38 30 26 20 13 3 356 350 340 333 331 327 323 323 324 323 316 308 303 295 285 277 272 271 271 272 272 271 270 270 272 273 274 275 276
133 131 321 23 135 305 349 93 94 6 47 122 180 174 117 135 154 92 138 167 132 229 281 301 266 256 201 223 298 292 231 244 249 224 87 246 184 94 337 25 60 63 66 62 54 43 29 36 37 38 38 30 23 17 8 359 353 350 344 336 331 327 325 326 328 329 330 326 320 313 304 295 286 280 277 276 276 275 273 273 274 274 275 277 278 277
124 135 243 321 270 294 13 114 186 215 19 50 106 114 81 129 162 159 150 165 175 195 254 309 319 264 225 218 215 216 220 224 219 182 171 201 177 155 144 89 90 94 89 82 64 35 11 22 29 29 27 20 18 17 13 9 5 1 355 347 335 323 322 324 325 328 331 328 322 316 310 302 295 288 284 281 279 277 276 277 277 277 278 279 279 278
113 139 191 308 335 204 184 220 194 176 154 106 122 161 176 74 119 159 103 120 139 161 189 272 298 270 249 210 196 215 225 222 214 186 184 197 181 180 179 120 109 99 87 69 37 7 350 9 23 31 34 30 30 27 24 24 21 20 19 14 0 341 330 325 325 331 331 327 321 317 314 309 303 296 291 288 284 282 282 282 281 281 282 282 281 279
149 152 161 140 250 200 216 260 214 182 172 163 169 181 175 144 123 147 247 232 121 144 169 176 263 271 256 205 204 227 224 223 219 179 170 189 192 201 199 141 113 96 83 27 353 337 342 3 16 31 40 39 35 28 25 26 26 27 27 25 23 14 359 348 348 349 340 331 325 320 319 314 309 304 299 295 291 290 289 288 288 288 286 284 285 283
127 109 118 147 212 210 239 289 233 207 147 144 186 189 170 163 140 153 210 220 124 135 144 117 264 271 262 218 213 238 243 248 230 168 153 178 202 209 195 141 95 70 2 333 334 335 348 4 19 34 38 36 31 25 24 27 30 33 32 33 32 24 18 17 14 8 355 344 337 331 326 322 319 315 309 305 302 300 299 298 296 293 290 289 289 287
124 112 117 159 298 311 330 342 11 27 60 148 234 189 166 188 152 148 183 169 145 181 145 90 277 267 274 270 234 243 256 255 233 183 158 171 202 215 193 129 55 2 335 334 333 335 347 9 36 44 39 37 35 30 30 32 35 38 39 39 34 27 27 28 24 17 8 359 352 345 339 336 333 328 322 318 314 311 309 306 303 299 295 294 292 290
189 163 133 119 32 354 344 347 337 320 230 202 225 194 176 152 101 100 119 109 157 208 162 147 237 253 271 307 334 322 209 188 211 216 185 172 192 211 193 100 336 310 323 324 321 333 349 20 39 44 48 48 44 37 35 36 36 37 38 34 28 26 28 27 22 18 13 7 3 359 356 352 347 341 335 330 325 321 318 314 309 305 301 298 295 293
184 179 152 156 174 194 204 209 223 217 187 198 202 180 178 147 137 154 127 116 220 224 159 173 232 250 283 318 354 76 140 189 222 251 251 209 206 214 181 237 266 244 231 263 291 319 344 26 28 32 37 34 32 31 30 29 30 32 33 31 26 23 22 21 19 17 13 10 9 7 4 360 354 348 343 337 333 329 325 321 317 312 309 305 300 297
140 181 190 190 200 206 200 200 175 126 140 194 182 160 168 168 170 160 113 167 208 165 167 221 228 226 253 277 259 201 189 200 213 231 245 237 233 221 180 221 250 217 178 192 177 57 38 31 22 24 27 25 26 28 29 29 29 30 28 26 23 20 18 17 16 14 12 11 10 8 5 1 356 350 345 341 338 334 331 329 324 320 317 312 306 302
103 205 211 201 220 222 184 177 176 139 161 191 175 164 175 178 176 169 186 213 188 120 232 235 204 213 238 229 221 220 207 209 215 213 219 230 233 199 187 236 298 5 22 38 50 37 29 24 15 20 24 25 26 27 29 30 30 29 25 20 19 19 17 15 14 12 11 10 9 7 3 360 356 352 347 344 340 338 336 333 328 324 320 315 310 307
132 210 212 189 227 237 168 160 191 165 174 190 178 179 181 175 180 188 210 221 184 177 239 224 160 207 232 206 212 220 201 206 215 205 205 224 238 183 191 280 353 23 24 34 36 25 25 19 7 17 22 24 26 25 25 26 25 23 20 18 18 17 16 16 15 14 12 10 10 6 1 358 355 351 349 347 344 342 338 334 330 326 320 316 313 311
153 216 200 170 222 244 196 165 192 178 178 192 188 188 182 180 190 195 211 222 207 211 239 214 168 222 228 191 212 223 196 199 204 180 222 224 192 171 194 223 145 88 74 67 55 22 24 11 10 24 26 25 25 21 19 19 17 16 15 15 16 16 17 17 17 18 17 15 13 9 4 360 355 352 350 347 345 343 340 336 332 327 323 320 317 314
188 220 163 140 206 254 206 163 194 192 183 202 208 197 187 189 200 206 216 223 213 223 245 238 225 252 238 173 213 232 188 186 189 225 242 223 171 171 177 167 155 145 137 137 142 120 56 30 27 28 25 23 21 19 16 13 12 12 11 12 13 14 16 18 19 18 17 14 12 9 6 3 359 356 353 350 347 343 339 336 332 329 326 324 321 318
179 199 60 107 180 255 219 167 181 140 99 252 247 211 196 196 206 214 218 216 200 213 235 239 245 256 228 159 202 230 165 204 225 229 237 238 207 187 155 130 121 110 90 67 51 39 29 25 24 21 20 19 19 17 14 9 8 9 8 8 10 11 14 16 16 14 12 10 8 6 4 1 358 357 355 352 349 345 341 337 334 332 329 326 324 321
160 160 123 141 181 264 292 151 142 98 81 262 245 216 205 203 209 218 226 226 214 206 211 220 233 244 197 158 190 204 186 211 227 223 226 234 223 170 138 129 116 98 78 55 43 35 24 18 19 19 19 18 17 15 12 9 6 4 4 5 6 8 11 12 11 9 7 5 3 1 360 357 354 353 352 350 347 345 342 339 336 334 331 327 325 321
151 153 171 168 170 260 288 116 112 128 207 233 230 205 202 205 205 207 216 222 218 208 211 227 240 236 156 167 189 195 198 215 223 208 212 212 164 133 126 129 121 110 95 70 52 36 23 19 20 21 21 19 17 15 13 10 5 1 2 3 4 5 7 6 5 4 1 360 358 357 355 353 350 349 348 347 345 343 341 339 336 335 333 329 326 321
151 158 171 150 142 201 215 113 140 215 226 241 262 194 200 208 203 203 221 230 222 213 221 238 254 243 188 186 198 193 188 187 117 106 56 66 142 136 127 131 128 116 99 77 56 32 24 22 18 17 17 17 16 14 12 9 4 1 2 2 1 2 2 1 0 359 356 355 354 353 351 349 347 346 346 345 343 341 340 338 336 335 334 331 326 322
149 158 149 137 150 143 129 169 212 238 252 301 297 239 189 181 172 192 237 249 234 214 213 228 243 240 200 181 210 188 151 117 76 65 45 49 110 124 126 137 138 125 112 97 64 31 24 21 16 12 11 12 13 11 8 5 1 358 359 360 358 358 358 358 357 355 353 351 350 349 349 347 345 343 343 342 341 339 339 337 335 335 334 331 327 323
143 147 137 177 199 175 174 204 234 312 325 253 237 235 178 151 159 178 225 247 229 209 204 215 233 238 207 176 185 136 116 106 67 22 258 159 103 113 120 130 136 128 115 99 68 40 30 23 17 12 8 10 12 9 3 0 358 355 356 357 356 355 355 355 354 352 349 347 346 345 344 344 342 340 339 339 338 336 335 333 332 332 331 329 326 323
157 181 182 203 212 175 197 226 239 260 254 238 220 215 177 168 169 169 199 243 233 206 203 209 225 232 211 174 163 139 127 134 180 226 217 190 151 122 110 116 124 115 96 79 58 38 30 21 14 11 8 7 9 7 2 358 355 354 353 354 353 351 351 351 349 347 344 342 340 339 339 339 337 336 335 334 333 332 330 329 328 328 328 326 323 321
183 195 178 200 215 174 196 225 223 224 244 242 225 230 201 167 144 132 185 251 244 195 189 195 217 227 202 165 161 153 148 186 223 215 185 173 169 144 120 112 105 90 72 57 43 30 21 13 9 9 8 5 4 3 0 357 354 353 351 350 347 346 346 345 342 340 337 335 334 334 334 334 333 332 331 330 329 327 325 324 324 325 325 324 321 319
189 184 182 199 211 202 203 221 230 232 248 236 231 249 222 146 121 123 202 252 233 181 177 185 208 220 183 155 160 161 174 213 219 186 163 159 151 133 120 106 88 67 47 37 30 20 12 9 6 4 3 1 358 357 357 355 354 352 349 346 343 341 340 337 335 334 332 330 330 329 330 330 330 329 327 326 325 325 323 322 322 323 322 321 319 317
187 182 195 203 210 212 212 224 249 255 241 219 215 220 169 133 128 169 214 236 199 190 195 180 191 186 147 152 164 167 195 208 136 130 138 129 117 110 97 85 74 56 39 29 20 12 6 3 1 359 357 356 354 353 355 355 352 350 347 343 339 336 334 332 330 329 328 327 326 326 327 327 326 326 325 324 324 323 322 321 320 320 318 317 316 314
180 182 198 203 208 214 217 227 250 261 241 168 150 176 158 145 185 206 207 255 164 170 122 105 135 137 140 150 147 137 135 106 102 112 116 112 108 95 71 62 56 44 32 22 16 11 2 354 354 353 351 352 352 352 353 352 348 345 341 335 332 331 330 328 326 326 325 323 323 323 324 325 325 324 324 323 323 321 320 319 318 317 315 314 312 310
174 177 191 193 195 199 210 217 224 245 222 132 123 131 185 185 207 193 128 37 79 138 125 117 128 138 136 128 119 126 126 113 106 106 103 100 95 83 70 60 49 36 24 16 12 7 359 351 348 345 343 346 349 350 351 348 341 338 333 329 328 328 326 325 325 325 324 323 323 323 323 324 324 323 322 321 321 319 317 316 316 314 313 311 309 307
182 184 192 192 192 190 201 214 214 204 188 161 147 170 199 196 188 158 135 97 95 141 139 119 111 131 133 125 125 129 121 110 110 108 103 98 91 87 78 60 47 34 21 14 6 0 356 348 340 334 334 340 345 348 348 343 337 333 331 330 329 328 326 325 326 326 325 325 324 324 324 323 322 321 320 320 319 317 314 313 313 312 311 309 306 303
210 200 181 177 192 185 182 212 222 191 201 199 140 162 198 169 72 130 136 119 126 175 166 129 125 128 122 118 119 116 110 113 115 108 104 102 92 84 70 52 40 25 11 3 357 354 350 340 331 327 328 335 343 345 343 342 339 334 330 329 328 327 326 327 327 326 325 325 324 323 323 322 319 319 318 317 317 314 311 311 311 309 308 306 304 299
251 232 147 151 194 207 164 168 155 34 333 348 32 17 15 39 37 112 121 111 115 128 119 122 130 126 119 119 116 108 110 120 113 94 86 85 68 55 52 39 25 15 3 355 350 345 340 335 332 330 332 337 343 343 340 341 340 333 327 326 327 328 329 327 326 325 324 324 323 321 321 320 318 317 316 315 314 311 308 307 306 304 303 302 299 296
281 203 166 180 203 205 202 162 110 34 330 6 36 25 47 45 21 52 104 113 115 108 102 108 114 110 104 109 115 118 123 122 115 104 85 77 70 56 45 26 11 3 351 344 341 339 339 341 340 339 338 338 340 341 338 336 335 331 328 330 333 334 330 327 326 324 321 321 320 318 318 317 315 314 314 313 312 310 307 305 302 299 298 296 294 295
228 168 168 204 208 187 186 299 304 334 356 11 18 31 90 87 63 63 88 106 105 98 91 88 98 105 101 101 115 122 121 117 120 125 122 110 107 92 53 16 355 342 336 338 342 345 347 347 342 339 338 335 336 336 333 332 334 336 337 339 340 336 329 325 324 320 317 317 316 314 314 313 311 311 311 310 308 307 304 302 300 296 293 290 288 288
147 161 182 184 171 129 25 275 206 92 24 338 313 79 121 137 116 100 100 106 105 103 96 81 73 86 101 110 124 124 121 123 123 123 134 146 139 127 86 359 346 342 343 345 347 349 349 344 338 335 332 330 331 332 331 333 336 339 342 343 342 337 330 326 323 317 314 314 314 313 313 311 309 308 307 305 304 303 300 297 294 291 289 290 289 284
148 178 180 124 132 186 219 199 177 144 167 230 205 171 168 165 137 123 119 113 110 118 119 106 89 80 85 93 106 117 121 125 118 112 132 144 118 81 28 3 351 346 347 347 345 344 342 338 334 330 326 326 329 330 331 333 335 340 346 346 340 333 329 326 322 317 315 316 316 314 313 312 309 308 306 303 302 301 301 299 296 290 283 285 291 291
185 186 174 155 178 221 216 192 179 163 170 192 176 164 173 173 143 133 133 128 124 132 134 127 120 110 91 76 81 100 115 120 114 113 129 127 86 50 23 6 352 345 344 344 342 340 338 335 333 329 325 326 329 330 331 332 336 342 346 341 330 326 325 325 321 316 314 315 312 310 309 308 307 307 306 304 302 300 300 301 302 300 291 284 287 292